Weather History for KORE - February, 2013

Change the Weather History Date:

Monday, February 25, 2013

  Actual Average Record
Temperature  
Mean Temperature 28 °F -  
Max Temperature 36 °F 35 °F 50 °F (2002)
Min Temperature 21 °F 16 °F 3 °F (2003)
Degree Days  
Heating Degree Days 36    
Moisture  
Dew Point 27 °F    
Average Humidity 92    
Maximum Humidity 100    
Minimum Humidity 75    
Precipitation  
Precipitation 0.00 in - - ()
Sea Level Pressure  
Sea Level Pressure 30.10 in    
Wind  
Wind Speed 3 mph (NNW)    
Max Wind Speed 8 mph    
Max Gust Speed -    
Visibility 5 miles    
Events Fog    
Averages and records for this station are not official NWS values.
T = Trace of Precipitation, MM = Missing Value Source: NWS Daily Summary

Daily Weather History Graph

Daily Weather History Graph

Search for Another Location

Airport or City:

Trip Planner

Search our weather history database for the weather conditions in past years. The results will help you decide how hot, cold, wet, or windy it might be!

Date:

Astronomy

Feb. 25, 2013 Rise Set
Actual Time 6:30 AM EST 5:34 PM EST
Civil Twilight 6:02 AM EST 6:02 PM EST
Nautical Twilight 5:29 AM EST 6:35 PM EST
Astronomical Twilight 4:57 AM EST 7:07 PM EST
Moon 5:45 PM EST (2/25) 5:58 AM EST (2/25)
Length of Visible Light 12h 00m
Length of Day
11h 03m
Full, 100% of the Moon is Illuminated
Feb 25
Full
Feb 25
Full
Mar 4
Last Quarter
Mar 11
New
Mar 19
First Quarter

Hourly Weather History & Observations

Time (EST) Temp. Windchill Dew Point Humidity Pressure Visibility Wind Dir Wind Speed Gust Speed Precip Events Conditions
12:11 AM 32.0 °F 25.6 °F 28.4 °F 87% 29.90 in 10.0 mi NNW 6.9 mph - N/A   Overcast
12:52 AM 32.0 °F 27.5 °F 28.9 °F 88% 29.94 in 10.0 mi NNW 4.6 mph - N/A   Overcast
1:52 AM 32.0 °F 25.6 °F 28.0 °F 85% 29.96 in 10.0 mi NNW 6.9 mph - N/A   Overcast
2:52 AM 30.0 °F 24.1 °F 26.1 °F 85% 29.96 in 10.0 mi North 5.8 mph - N/A   Partly Cloudy
3:52 AM 27.0 °F 21.6 °F 25.0 °F 92% 29.97 in 10.0 mi NNW 4.6 mph - N/A   Clear
4:52 AM 27.0 °F - 25.0 °F 92% 30.00 in 10.0 mi Calm Calm - N/A   Clear
5:52 AM 24.1 °F - 23.0 °F 96% 30.02 in 5.0 mi Calm Calm - N/A   Clear
5:57 AM 24.8 °F - 23.0 °F 93% 30.00 in 1.8 mi Calm Calm - N/A   Clear
6:14 AM 24.8 °F - 23.0 °F 93% 30.01 in 3.0 mi Calm Calm - N/A   Clear
6:36 AM 23.0 °F - 21.2 °F 93% 30.02 in 1.5 mi Calm Calm - N/A   Clear
6:38 AM 23.0 °F - 21.2 °F 93% 30.02 in 0.8 mi Calm Calm - N/A   Clear
6:47 AM 24.8 °F - 21.2 °F 86% 30.03 in 1.2 mi Calm Calm - N/A   Clear
6:49 AM 24.8 °F - 21.2 °F 86% 30.02 in 2.5 mi Calm Calm - N/A   Clear
6:52 AM 23.0 °F - 23.0 °F 100% 30.05 in 5.0 mi Calm Calm - N/A   Clear
7:08 AM 23.0 °F - 21.2 °F 93% 30.03 in 1.8 mi Calm Calm - N/A   Clear
7:19 AM 21.2 °F - 21.2 °F 100% 30.04 in 1.0 mi Calm Calm - N/A   Clear
7:27 AM 21.2 °F - 21.2 °F 100% 30.04 in 0.2 mi Calm Calm - N/A Fog Light Freezing Fog
7:39 AM 24.8 °F - 24.8 °F 100% 30.04 in 1.0 mi Calm Calm - N/A   Mist
7:43 AM 23.0 °F - 23.0 °F 100% 30.04 in 0.5 mi Calm Calm - N/A Fog Light Freezing Fog
7:52 AM 24.1 °F - 24.1 °F 100% 30.07 in 0.2 mi Calm Calm - N/A Fog Light Freezing Fog
7:57 AM 24.8 °F - 24.8 °F 100% 30.05 in 1.5 mi Calm Calm - N/A   Clear
8:00 AM 26.6 °F - 26.6 °F 100% 30.05 in 3.0 mi Calm Calm - N/A   Clear
8:28 AM 28.4 °F - 28.4 °F 100% 30.06 in 7.0 mi Calm Calm - N/A   Mostly Cloudy
8:52 AM 28.9 °F - 28.0 °F 96% 30.09 in 10.0 mi Calm Calm - N/A   Overcast
9:52 AM 34.0 °F 31.0 °F 28.0 °F 79% 30.10 in 10.0 mi NNW 3.5 mph - N/A   Overcast
10:52 AM 34.0 °F 27.2 °F 28.9 °F 82% 30.11 in 10.0 mi NW 8.1 mph - N/A   Overcast
11:52 AM 35.1 °F 29.3 °F 28.9 °F 78% 30.12 in 10.0 mi NW 6.9 mph - N/A   Overcast
12:52 PM 35.1 °F 28.6 °F 28.9 °F 78% 30.13 in 10.0 mi NW 8.1 mph - N/A   Overcast
1:52 PM 36.0 °F 29.6 °F 28.9 °F 76% 30.15 in 10.0 mi NW 8.1 mph - N/A   Overcast
2:27 PM 35.6 °F 29.9 °F 28.4 °F 75% 30.12 in 10.0 mi NNE 6.9 mph - N/A   Overcast
2:52 PM 36.0 °F 33.3 °F 28.9 °F 76% 30.16 in 10.0 mi North 3.5 mph - N/A   Overcast
3:52 PM 35.1 °F 32.2 °F 28.9 °F 78% 30.17 in 10.0 mi WNW 3.5 mph - N/A   Overcast
4:52 PM 35.1 °F - 30.0 °F 82% 30.17 in 10.0 mi Calm Calm - N/A   Overcast
5:52 PM 34.0 °F - 32.0 °F 92% 30.18 in 10.0 mi Calm Calm - N/A   Overcast
6:52 PM 32.0 °F - 32.0 °F 100% 30.21 in 6.0 mi Calm Calm - N/A   Overcast
7:52 PM 32.0 °F - 30.9 °F 96% 30.22 in 5.0 mi Calm Calm - N/A   Overcast
8:52 PM 32.0 °F - 30.9 °F 96% 30.23 in 4.0 mi Calm Calm - N/A   Overcast
9:17 PM 32.0 °F - 30.2 °F 93% 30.20 in 2.5 mi Calm Calm - N/A   Overcast
9:27 PM 30.2 °F - 30.2 °F 100% 30.20 in 3.0 mi Calm Calm - N/A   Overcast
9:52 PM 32.0 °F - 30.9 °F 96% 30.23 in 3.0 mi Calm Calm - N/A   Overcast
10:08 PM 30.2 °F - 30.2 °F 100% 30.20 in 2.5 mi Calm Calm - N/A   Overcast
10:21 PM 30.2 °F - 30.2 °F 100% 30.20 in 1.2 mi Calm Calm - N/A   Overcast
10:26 PM 30.2 °F - 30.2 °F 100% 30.20 in 0.8 mi Calm Calm - N/A   Overcast
10:41 PM 30.2 °F - 30.2 °F 100% 30.21 in 0.2 mi Calm Calm - N/A Fog Light Freezing Fog
10:52 PM 30.0 °F - 28.9 °F 96% 30.23 in 0.2 mi Calm Calm - N/A Fog Light Freezing Fog
11:52 PM 30.0 °F - 30.0 °F 100% 30.25 in 0.2 mi Calm Calm - N/A Fog Light Freezing Fog